• en France
  • Liste des pays
  • À 7 jours
  • Température de l'eau
  • Carte satellitaire
  • Carte météo
  • Widgets météo
  • user-avatar
    Se connecter

    Météo par heure à Cimguda

    Ce jour, 21 Août, Mardi

    Heure Température Précipitation Vent Pression Humidité
    00:00 +7°C° 0 mm 2 m/s 584 mmHg 83%
    01:00 +6°C° 0 mm 2 m/s 584 mmHg 82%
    02:00 +6°C° 0 mm 2 m/s 584 mmHg 80%
    03:00 +6°C° 0 mm 2 m/s 584 mmHg 81%
    04:00 +7°C° 0 mm 2 m/s 584 mmHg 80%
    05:00 +7°C° 0 mm 2 m/s 584 mmHg 79%
    06:00 +7°C° 0 mm 2 m/s 584 mmHg 78%
    07:00 +9°C° 0 mm 2 m/s 585 mmHg 70%
    08:00 +13°C° 0 mm 2 m/s 586 mmHg 62%
    09:00 +15°C° 0 mm 2 m/s 587 mmHg 54%
    10:00 +16°C° 0 mm 2 m/s 588 mmHg 52%
    11:00 +17°C° 0 mm 2 m/s 588 mmHg 50%
    12:00 +18°C° 0 mm 2 m/s 588 mmHg 49%
    13:00 +18°C° 0,2 mm 2 m/s 588 mmHg 49%
    14:00 +18°C° 0,2 mm 2 m/s 588 mmHg 50%
    15:00 +18°C° 0,2 mm 2 m/s 588 mmHg 51%
    16:00 +17°C° 0,1 mm 2 m/s 587 mmHg 56%
    17:00 +16°C° 0,1 mm 1 m/s 587 mmHg 60%
    18:00 +15°C° 0,1 mm 1 m/s 586 mmHg 64%
    19:00 +13°C° 0 mm 1 m/s 585 mmHg 66%
    20:00 +12°C° 0 mm 1 m/s 585 mmHg 68%
    21:00 +9°C° 0 mm 2 m/s 584 mmHg 70%
    22:00 +9°C° 0 mm 2 m/s 584 mmHg 67%
    23:00 +9°C° 0 mm 2 m/s 584 mmHg 64%

    Demain, 22 Août, Mercredi

    Heure Température Précipitation Vent Pression Humidité
    00:00 +9°C° 0 mm 2 m/s 584 mmHg 61%
    01:00 +9°C° 0 mm 2 m/s 584 mmHg 59%
    02:00 +9°C° 0 mm 2 m/s 584 mmHg 56%
    03:00 +10°C° 0 mm 1 m/s 584 mmHg 54%
    04:00 +10°C° 0,1 mm 1 m/s 584 mmHg 56%
    05:00 +10°C° 0,1 mm 1 m/s 584 mmHg 58%
    06:00 +11°C° 0,1 mm 1 m/s 584 mmHg 59%
    07:00 +12°C° 0,2 mm 1 m/s 585 mmHg 57%
    08:00 +13°C° 0,2 mm 1 m/s 585 mmHg 55%
    09:00 +15°C° 0,2 mm 1 m/s 586 mmHg 52%
    10:00 +16°C° 0 mm 1 m/s 586 mmHg 50%
    11:00 +17°C° 0 mm 2 m/s 587 mmHg 48%
    12:00 +19°C° 0 mm 2 m/s 587 mmHg 46%
    13:00 +19°C° 0,4 mm 2 m/s 587 mmHg 49%
    14:00 +18°C° 0,4 mm 2 m/s 587 mmHg 52%
    15:00 +18°C° 0,4 mm 2 m/s 586 mmHg 55%
    16:00 +18°C° 0,5 mm 1 m/s 586 mmHg 60%
    17:00 +16°C° 0,5 mm 1 m/s 586 mmHg 66%
    18:00 +15°C° 0,5 mm 1 m/s 585 mmHg 71%
    19:00 +14°C° 0,3 mm 1 m/s 585 mmHg 74%
    20:00 +13°C° 0,3 mm 1 m/s 585 mmHg 76%
    21:00 +12°C° 0,3 mm 1 m/s 585 mmHg 79%
    22:00 +12°C° 0,2 mm 1 m/s 585 mmHg 79%
    23:00 +11°C° 0,2 mm 1 m/s 585 mmHg 79%

    Après-demain, 23 Août, Jeudi

    Heure Température Précipitation Vent Pression Humidité
    00:00 +11°C° 0,2 mm 1 m/s 585 mmHg 79%
    01:00 +10°C° 0 mm 1 m/s 584 mmHg 79%
    02:00 +10°C° 0 mm 1 m/s 584 mmHg 79%
    03:00 +10°C° 0 mm 1 m/s 584 mmHg 80%
    04:00 +10°C° 0 mm 1 m/s 584 mmHg 80%
    05:00 +10°C° 0 mm 1 m/s 585 mmHg 79%
    06:00 +11°C° 0 mm 1 m/s 585 mmHg 79%
    07:00 +12°C° 0 mm 1 m/s 586 mmHg 74%
    08:00 +14°C° 0 mm 1 m/s 587 mmHg 68%
    09:00 +16°C° 0 mm 1 m/s 588 mmHg 62%
    10:00 +16°C° 0,3 mm 1 m/s 588 mmHg 60%
    11:00 +17°C° 0,3 mm 2 m/s 588 mmHg 59%
    12:00 +17°C° 0,3 mm 2 m/s 588 mmHg 57%
    13:00 +18°C° 0,4 mm 2 m/s 588 mmHg 56%
    14:00 +18°C° 0,4 mm 2 m/s 588 mmHg 55%
    15:00 +18°C° 0,4 mm 2 m/s 588 mmHg 55%
    16:00 +17°C° 0,1 mm 2 m/s 587 mmHg 58%
    17:00 +16°C° 0,1 mm 1 m/s 587 mmHg 61%
    18:00 +15°C° 0,1 mm 1 m/s 587 mmHg 65%
    19:00 +14°C° 0 mm 1 m/s 586 mmHg 68%
    20:00 +12°C° 0 mm 1 m/s 586 mmHg 70%
    21:00 +11°C° 0 mm 1 m/s 586 mmHg 73%
    22:00 +10°C° 0 mm 1 m/s 586 mmHg 72%
    23:00 +10°C° 0 mm 1 m/s 585 mmHg 71%

    24 Août, Vendredi

    Heure Température Précipitation Vent Pression Humidité
    00:00 +10°C° 0 mm 1 m/s 585 mmHg 70%
    01:00 +9°C° 0 mm 1 m/s 585 mmHg 70%
    02:00 +9°C° 0 mm 1 m/s 585 mmHg 71%
    03:00 +9°C° 0 mm 1 m/s 585 mmHg 71%
    04:00 +9°C° 0 mm 1 m/s 585 mmHg 71%
    05:00 +10°C° 0 mm 1 m/s 585 mmHg 72%
    06:00 +10°C° 0 mm 1 m/s 586 mmHg 73%
    07:00 +12°C° 0 mm 1 m/s 586 mmHg 66%
    08:00 +14°C° 0 mm 2 m/s 587 mmHg 60%
    09:00 +16°C° 0 mm 2 m/s 588 mmHg 54%
    10:00 +17°C° 0 mm 2 m/s 588 mmHg 53%
    11:00 +18°C° 0 mm 2 m/s 589 mmHg 52%
    12:00 +18°C° 0 mm 2 m/s 589 mmHg 51%
    13:00 +19°C° 0,2 mm 2 m/s 588 mmHg 51%
    14:00 +19°C° 0,2 mm 2 m/s 588 mmHg 51%
    15:00 +19°C° 0,2 mm 2 m/s 588 mmHg 51%
    16:00 +18°C° 0 mm 2 m/s 587 mmHg 55%
    17:00 +16°C° 0 mm 2 m/s 587 mmHg 59%
    18:00 +15°C° 0 mm 1 m/s 586 mmHg 63%
    19:00 +14°C° 0 mm 1 m/s 586 mmHg 63%
    20:00 +12°C° 0 mm 2 m/s 585 mmHg 63%
    21:00 +10°C° 0 mm 2 m/s 585 mmHg 64%
    22:00 +10°C° 0 mm 2 m/s 585 mmHg 62%
    23:00 +9°C° 0 mm 2 m/s 584 mmHg 59%

    25 Août, Samedi

    Heure Température Précipitation Vent Pression Humidité
    00:00 +9°C° 0 mm 2 m/s 584 mmHg 57%
    01:00 +10°C° 0 mm 1 m/s 584 mmHg 59%
    02:00 +10°C° 0 mm 1 m/s 584 mmHg 60%
    03:00 +9°C° 0 mm 1 m/s 583 mmHg 62%
    04:00 +10°C° 0 mm 1 m/s 584 mmHg 62%
    05:00 +10°C° 0 mm 1 m/s 584 mmHg 63%
    06:00 +11°C° 0 mm 1 m/s 584 mmHg 63%
    07:00 +13°C° 0 mm 1 m/s 585 mmHg 58%
    08:00 +15°C° 0 mm 1 m/s 586 mmHg 53%
    09:00 +18°C° 0 mm 1 m/s 587 mmHg 47%
    10:00 +18°C° 0 mm 2 m/s 587 mmHg 47%
    11:00 +19°C° 0 mm 2 m/s 587 mmHg 46%
    12:00 +20°C° 0 mm 2 m/s 588 mmHg 45%
    13:00 +20°C° 0,2 mm 2 m/s 587 mmHg 46%
    14:00 +20°C° 0,2 mm 2 m/s 587 mmHg 47%
    15:00 +19°C° 0,2 mm 2 m/s 587 mmHg 48%
    16:00 +18°C° 0,1 mm 2 m/s 586 mmHg 52%
    17:00 +17°C° 0,1 mm 2 m/s 586 mmHg 57%
    18:00 +16°C° 0,1 mm 1 m/s 585 mmHg 61%
    19:00 +14°C° 0 mm 1 m/s 585 mmHg 63%
    20:00 +13°C° 0 mm 1 m/s 585 mmHg 65%
    21:00 +11°C° 0 mm 1 m/s 584 mmHg 67%
    22:00 +11°C° 0 mm 1 m/s 584 mmHg 65%
    23:00 +11°C° 0 mm 1 m/s 584 mmHg 63%

    26 Août, Dimanche

    Heure Température Précipitation Vent Pression Humidité
    00:00 +9°C° 0 mm 2 m/s 583 mmHg 60%
    01:00 +10°C° 0 mm 1 m/s 583 mmHg 57%
    02:00 +10°C° 0 mm 1 m/s 583 mmHg 55%
    03:00 +9°C° 0 mm 1 m/s 583 mmHg 52%
    04:00 +10°C° 0 mm 1 m/s 583 mmHg 51%
    05:00 +10°C° 0 mm 1 m/s 583 mmHg 51%
    06:00 +9°C° 0 mm 2 m/s 584 mmHg 51%
    07:00 +13°C° 0 mm 2 m/s 585 mmHg 47%
    08:00 +15°C° 0 mm 2 m/s 586 mmHg 43%
    09:00 +17°C° 0 mm 2 m/s 587 mmHg 39%
    10:00 +18°C° 0 mm 2 m/s 587 mmHg 38%
    11:00 +19°C° 0 mm 3 m/s 587 mmHg 37%
    12:00 +20°C° 0 mm 3 m/s 587 mmHg 36%
    13:00 +20°C° 0 mm 3 m/s 587 mmHg 36%
    14:00 +21°C° 0 mm 3 m/s 587 mmHg 36%
    15:00 +21°C° 0 mm 3 m/s 587 mmHg 37%
    16:00 +19°C° 0 mm 3 m/s 586 mmHg 41%
    17:00 +18°C° 0 mm 2 m/s 585 mmHg 46%
    18:00 +16°C° 0 mm 2 m/s 585 mmHg 50%
    19:00 +15°C° 0 mm 2 m/s 584 mmHg 49%
    20:00 +13°C° 0 mm 2 m/s 584 mmHg 47%
    21:00 +12°C° 0 mm 2 m/s 583 mmHg 46%
    22:00 +10°C° 0 mm 2 m/s 583 mmHg 46%
    23:00 +10°C° 0 mm 2 m/s 583 mmHg 46%
    Voir plus